Weather History for KCRG - May, 2014

Change the Weather History Date:

Saturday, May 10, 2014

  Actual Average Record
Temperature  
Mean Temperature 80 °F -  
Max Temperature 90 °F 82 °F 95 °F (2003)
Min Temperature 73 °F 61 °F 57 °F (2001)
Cooling Degree Days 16    
Growing Degree Days 30 (Base 50)    
Moisture  
Dew Point 68 °F    
Average Humidity 66    
Maximum Humidity 85    
Minimum Humidity 40    
Precipitation  
Precipitation 0.00 in - - ()
Sea Level Pressure  
Sea Level Pressure 30.11 in    
Wind  
Wind Speed 10 mph (SSE)    
Max Wind Speed 14 mph    
Max Gust Speed 21 mph    
Visibility 10 miles    
Events      
Averages and records for this station are not official NWS values.
T = Trace of Precipitation, MM = Missing Value Source: NWS Daily Summary

Daily Weather History Graph

Daily Weather History Graph

Search for Another Location

Airport or City:

Trip Planner

Search our weather history database for the weather conditions in past years. The results will help you decide how hot, cold, wet, or windy it might be!

Date:

Astronomy

May. 10, 2014 Rise Set
Actual Time 6:35 AM EDT 8:09 PM EDT
Civil Twilight 6:09 AM EDT 8:35 PM EDT
Nautical Twilight 5:38 AM EDT 9:07 PM EDT
Astronomical Twilight 5:05 AM EDT 9:39 PM EDT
Moon 4:21 PM EDT (5/10) 3:49 AM EDT (5/10)
Length of Visible Light 14h 26m
Length of Day
13h 34m
Waxing Gibbous, 82% of the Moon is Illuminated
May 10
Waxing Gibbous
May 14
Full
May 21
Last Quarter
May 28
New
Jun 5
First Quarter

Hourly Weather History & Observations

Time (EDT) Temp. Heat Index Dew Point Humidity Pressure Visibility Wind Dir Wind Speed Gust Speed Precip Events Conditions
12:53 AM 75.9 °F - 69.1 °F 79% 30.12 in 10.0 mi SSE 10.4 mph - N/A   Clear
1:53 AM 75.9 °F - 69.1 °F 79% 30.12 in 10.0 mi SSE 10.4 mph - N/A   Clear
2:53 AM 75.9 °F - 69.1 °F 79% 30.11 in 10.0 mi SSE 10.4 mph - N/A   Clear
3:53 AM 75.9 °F - 68.0 °F 76% 30.11 in 10.0 mi SSE 11.5 mph - N/A   Clear
4:53 AM 75.0 °F - 69.1 °F 82% 30.12 in 10.0 mi SSE 6.9 mph - N/A   Clear
5:53 AM 73.9 °F - 69.1 °F 85% 30.12 in 10.0 mi South 6.9 mph - N/A   Clear
7:53 AM 75.9 °F - 69.1 °F 79% 30.14 in 10.0 mi South 8.1 mph - N/A   Clear
8:53 AM 80.1 °F 82.7 °F 68.0 °F 67% 30.16 in 10.0 mi South 12.7 mph 18.4 mph N/A   Clear
9:53 AM 82.9 °F 85.0 °F 66.0 °F 56% 30.16 in 10.0 mi South 11.5 mph 20.7 mph N/A   Partly Cloudy
10:53 AM 84.0 °F 86.3 °F 66.0 °F 55% 30.16 in 10.0 mi South 11.5 mph - N/A   Partly Cloudy
11:53 AM 86.0 °F 87.6 °F 64.9 °F 49% 30.15 in 10.0 mi South 11.5 mph - N/A   Scattered Clouds
12:53 PM 88.0 °F 87.9 °F 61.0 °F 40% 30.13 in 10.0 mi South 13.8 mph - N/A   Scattered Clouds
1:53 PM 87.1 °F 90.6 °F 68.0 °F 53% 30.12 in 10.0 mi SE 11.5 mph 20.7 mph N/A   Scattered Clouds
2:53 PM 86.0 °F 90.1 °F 69.1 °F 57% 30.10 in 10.0 mi SE 9.2 mph - N/A   Partly Cloudy
3:53 PM 86.0 °F 90.1 °F 69.1 °F 57% 30.08 in 10.0 mi SSE 13.8 mph - N/A   Clear
5:53 PM 82.9 °F 85.4 °F 66.9 °F 58% 30.06 in 10.0 mi SSE 10.4 mph - N/A   Clear
6:53 PM 81.0 °F 83.3 °F 66.9 °F 62% 30.06 in 10.0 mi SSE 13.8 mph 17.3 mph N/A   Clear
7:53 PM 80.1 °F 82.7 °F 68.0 °F 67% 30.06 in 10.0 mi SSE 9.2 mph - N/A   Clear
8:53 PM 79.0 °F - 66.9 °F 66% 30.09 in 10.0 mi SSE 9.2 mph - N/A   Clear
9:53 PM 79.0 °F - 68.0 °F 69% 30.10 in 10.0 mi South 8.1 mph - N/A   Mostly Cloudy
11:53 PM 77.0 °F - 68.0 °F 74% 30.13 in 10.0 mi SSE 3.5 mph - N/A   Overcast